| time (UTC) | temp F | wind direction | speed MPH | gust MPH | rain 1hr in | rain 24hr in | rain mn in | humidity % | barometer mb |
| 20260503212212 | 89 | 219 | 2.0 | 5.0 | 0.00 | 0.00 | 0.00 | 13 | 1007.9 |
| 20260503210711 | 89 | 62 | 2.0 | 5.0 | 0.00 | 0.00 | 0.00 | 13 | 1008.1 |
| 20260503205916 | 89 | 66 | 2.0 | 5.0 | 0.00 | 0.00 | 0.00 | 14 | 1008.3 |
| 20260503203711 | 88 | 65 | 2.0 | 4.0 | 0.00 | 0.00 | 0.00 | 15 | 1008.4 |
| 20260503202210 | 87 | 72 | 2.0 | 6.0 | 0.00 | 0.00 | 0.00 | 16 | 1008.5 |
| 20260503200711 | 87 | 59 | 2.0 | 5.0 | 0.00 | 0.00 | 0.00 | 15 | 1008.6 |
| 20260503195209 | 85 | 278 | 1.0 | 7.0 | 0.00 | 0.00 | 0.00 | 18 | 1009.0 |
| 20260503193709 | 86 | 63 | 2.0 | 5.0 | 0.00 | 0.00 | 0.00 | 17 | 1009.2 |
| 20260503192907 | 84 | 23 | 1.0 | 4.0 | 0.00 | 0.00 | 0.00 | 22 | 1009.2 |
| 20260503190708 | 82 | 185 | 2.0 | 3.0 | 0.00 | 0.00 | 0.00 | 22 | 1009.4 |
| 20260503185208 | 80 | 68 | 0.0 | 0.0 | 0.00 | 0.00 | 0.00 | 27 | 1009.6 |
| 20260503183708 | 79 | 39 | 0.0 | 0.0 | 0.00 | 0.00 | 0.00 | 28 | 1009.8 |
| 20260503182207 | 78 | 87 | 0.0 | 0.0 | 0.00 | 0.00 | 0.00 | 30 | 1010.0 |
| 20260503180708 | 77 | 155 | 0.0 | 0.0 | 0.00 | 0.00 | 0.00 | 32 | 1010.1 |
| 20260503175902 | 75 | 51 | 0.0 | 0.0 | 0.00 | 0.00 | 0.00 | 33 | 1010.2 |
| 20260503173706 | 74 | 258 | 0.0 | 0.0 | 0.00 | 0.00 | 0.00 | 36 | 1010.3 |
| 20260503172206 | 73 | 286 | 0.0 | 0.0 | 0.00 | 0.00 | 0.00 | 36 | 1010.4 |
| 20260503170706 | 72 | 69 | 0.0 | 0.0 | 0.00 | 0.00 | 0.00 | 40 | 1010.4 |
| 20260503150703 | 59 | 157 | 0.0 | 0.0 | 0.00 | 0.00 | 0.00 | 64 | 1010.8 |
| 20260503130700 | 53 | 157 | 0.0 | 0.0 | 0.00 | 0.00 | 0.00 | 75 | 1010.3 |
| 20260503110657 | 54 | 157 | 0.0 | 0.0 | 0.00 | 0.00 | 0.00 | 70 | 1010.7 |
| 20260503080654 | 58 | 157 | 0.0 | 0.0 | 0.00 | 0.00 | 0.00 | 66 | 1011.2 |
| 20260503072152 | 60 | 157 | 0.0 | 0.0 | 0.00 | 0.00 | 0.00 | 64 | 1011.3 |
| 20260503070652 | 60 | 157 | 0.0 | 0.0 | 0.00 | 0.00 | 0.00 | 63 | 1011.1 |
| 20260503053650 | 62 | 240 | 0.0 | 0.0 | 0.00 | 0.00 | 0.00 | 60 | 1010.9 |
| 20260503052149 | 63 | 151 | 0.0 | 0.0 | 0.00 | 0.00 | 0.00 | 59 | 1011.2 |
| 20260503050649 | 63 | 151 | 0.0 | 0.0 | 0.00 | 0.00 | 0.00 | 59 | 1011.6 |
| 20260503045149 | 64 | 151 | 0.0 | 0.0 | 0.00 | 0.00 | 0.00 | 58 | 1011.4 |
| 20260503043649 | 64 | 151 | 0.0 | 0.0 | 0.00 | 0.00 | 0.00 | 58 | 1011.3 |
| 20260503042149 | 64 | 151 | 0.0 | 0.0 | 0.00 | 0.00 | 0.00 | 58 | 1011.4 |
| 20260503041343 | 64 | 151 | 0.0 | 0.0 | 0.00 | 0.00 | 0.00 | 57 | 1011.5 |
| 20260503035148 | 65 | 151 | 0.0 | 0.0 | 0.00 | 0.00 | 0.00 | 56 | 1011.3 |
| 20260503033648 | 65 | 151 | 0.0 | 0.0 | 0.00 | 0.00 | 0.00 | 55 | 1011.1 |
| 20260503032847 | 65 | 151 | 0.0 | 0.0 | 0.00 | 0.00 | 0.00 | 54 | 1011.1 |
| 20260503030647 | 65 | 151 | 0.0 | 0.0 | 0.00 | 0.00 | 0.00 | 54 | 1011.2 |
| 20260503025146 | 66 | 135 | 0.0 | 0.0 | 0.00 | 0.00 | 0.00 | 53 | 1011.2 |
| 20260503023646 | 67 | 155 | 0.0 | 7.0 | 0.00 | 0.00 | 0.00 | 52 | 1011.2 |
| 20260503022146 | 69 | 92 | 0.0 | 9.0 | 0.00 | 0.00 | 0.00 | 48 | 1011.2 |
| 20260503021340 | 71 | 125 | 3.0 | 6.0 | 0.00 | 0.00 | 0.00 | 46 | 1010.8 |
| 20260503015145 | 72 | 200 | 1.0 | 4.0 | 0.00 | 0.00 | 0.00 | 44 | 1010.3 |
| 20260503013645 | 72 | 221 | 1.0 | 1.0 | 0.00 | 0.00 | 0.00 | 45 | 1010.2 |
| 20260503012846 | 72 | 230 | 0.0 | 1.0 | 0.00 | 0.00 | 0.00 | 45 | 1010.0 |
| 20260503011347 | 71 | 230 | 1.0 | 2.0 | 0.00 | 0.00 | 0.00 | 46 | 1010.2 |
| 20260503005144 | 71 | 221 | 1.0 | 2.0 | 0.00 | 0.00 | 0.00 | 45 | 1010.0 |
| 20260503003643 | 71 | 282 | 0.0 | 3.0 | 0.00 | 0.00 | 0.00 | 45 | 1010.1 |
| 20260503002143 | 71 | 268 | 1.0 | 3.0 | 0.00 | 0.00 | 0.00 | 46 | 1010.2 |
| 20260503000642 | 71 | 279 | 2.0 | 3.0 | 0.00 | 0.00 | 0.00 | 43 | 1010.2 |
| 20260502235142 | 71 | 223 | 0.0 | 3.0 | 0.00 | 0.00 | 0.00 | 45 | 1010.2 |
| 20260502233642 | 71 | 296 | 0.0 | 3.0 | 0.00 | 0.00 | 0.00 | 44 | 1010.4 |
| 20260502232142 | 71 | 248 | 1.0 | 4.0 | 0.00 | 0.00 | 0.00 | 43 | 1010.5 |
| 20260502230641 | 72 | 97 | 1.0 | 3.0 | 0.00 | 0.00 | 0.00 | 43 | 1010.7 |
| 20260502225138 | 71 | 79 | 1.0 | 4.0 | 0.00 | 0.00 | 0.00 | 45 | 1010.9 |
| 20260502223638 | 71 | 219 | 1.0 | 3.0 | 0.00 | 0.00 | 0.00 | 45 | 1011.2 |
| 20260502222135 | 70 | 227 | 0.0 | 4.0 | 0.00 | 0.00 | 0.00 | 46 | 1011.4 |
| 20260502220632 | 69 | 203 | 1.0 | 6.0 | 0.00 | 0.00 | 0.00 | 48 | 1011.7 |
| 20260502215130 | 68 | 290 | 3.0 | 5.0 | 0.00 | 0.00 | 0.00 | 48 | 1011.9 |
| 20260502213631 | 67 | 234 | 2.0 | 3.0 | 0.00 | 0.00 | 0.00 | 49 | 1012.1 |